Location: Bottom School (historical)
(37.9078°N, 89.3593°W)
Time: 19:43:59
(UTC+00:00)

SL-4 R/B - Pass Details

Date: 07 July 2022
Orbit: 425 x 653 km, 51.6° (Epoch: 16 August)

Event Time Altitude Azimuth Distance (km) Brightness Sun altitude
Rises 09:27:19 0° 317° (NW) 2,553 5.4 -12.7°
Reaches altitude 10° 09:29:55 10° 336° (NNW) 1,715 4.8 -12.4°
Maximum altitude 09:32:46 19° 23° (NNE) 1,291 4.8 -11.9°
Drops below altitude 10° 09:35:45 10° 70° (ENE) 1,816 5.9 -11.5°
Sets 09:38:36 0° 88° (E) 2,760 6.5 -11.1°
